• In France
  • List of Countries
  • For 7 days
  • Water Temperature
  • Satellite Maps
  • Weather Map
  • Weather Widgets
  • user-avatar
    Login

    Hourly Weather Olesin

    Today, 22 June, Friday

    Time Temperature Precipitation Wind Pressure Humidity
    00:00 +10°C° 0 mm 5 mps 754 mmHg 69%
    01:00 +10°C° 0 mm 3 mps 754 mmHg 73%
    02:00 +8°C° 0 mm 4 mps 754 mmHg 74%
    03:00 +8°C° 0 mm 4 mps 754 mmHg 75%
    04:00 +8°C° 0 mm 5 mps 754 mmHg 76%
    05:00 +9°C° 0 mm 5 mps 754 mmHg 73%
    06:00 +10°C° 0 mm 6 mps 755 mmHg 70%
    07:00 +11°C° 0 mm 6 mps 755 mmHg 66%
    08:00 +11°C° 0 mm 6 mps 755 mmHg 65%
    09:00 +13°C° 0 mm 6 mps 755 mmHg 65%
    10:00 +13°C° 0 mm 6 mps 755 mmHg 64%
    11:00 +14°C° 0.1 mm 6 mps 755 mmHg 59%
    12:00 +16°C° 0.1 mm 5 mps 755 mmHg 55%
    13:00 +17°C° 0.1 mm 5 mps 755 mmHg 50%
    14:00 +17°C° 0.3 mm 5 mps 755 mmHg 51%
    15:00 +17°C° 0.3 mm 5 mps 755 mmHg 52%
    16:00 +17°C° 0.3 mm 5 mps 755 mmHg 53%
    17:00 +18°C° 0.2 mm 4 mps 755 mmHg 58%
    18:00 +17°C° 0.2 mm 3 mps 755 mmHg 63%
    19:00 +16°C° 0.2 mm 3 mps 755 mmHg 68%
    20:00 +14°C° 0 mm 3 mps 755 mmHg 73%
    21:00 +12°C° 0 mm 3 mps 755 mmHg 77%
    22:00 +11°C° 0 mm 3 mps 756 mmHg 82%
    23:00 +11°C° 0 mm 3 mps 756 mmHg 83%

    Tomorrow, 23 June, Saturday

    Time Temperature Precipitation Wind Pressure Humidity
    00:00 +11°C° 0 mm 3 mps 756 mmHg 84%
    01:00 +11°C° 0 mm 4 mps 756 mmHg 84%
    02:00 +11°C° 0 mm 4 mps 756 mmHg 85%
    03:00 +11°C° 0 mm 4 mps 756 mmHg 85%
    04:00 +10°C° 0 mm 5 mps 755 mmHg 86%
    05:00 +10°C° 0.1 mm 5 mps 756 mmHg 83%
    06:00 +10°C° 0.1 mm 5 mps 756 mmHg 80%
    07:00 +10°C° 0.1 mm 6 mps 756 mmHg 78%
    08:00 +11°C° 0 mm 6 mps 756 mmHg 73%
    09:00 +13°C° 0 mm 6 mps 756 mmHg 69%
    10:00 +13°C° 0 mm 6 mps 756 mmHg 65%
    11:00 +14°C° 0 mm 6 mps 756 mmHg 64%
    12:00 +15°C° 0 mm 6 mps 756 mmHg 64%
    13:00 +15°C° 0 mm 6 mps 755 mmHg 63%
    14:00 +15°C° 0.3 mm 5 mps 755 mmHg 65%
    15:00 +16°C° 0.3 mm 5 mps 755 mmHg 67%
    16:00 +16°C° 0.3 mm 5 mps 755 mmHg 68%
    17:00 +15°C° 0.3 mm 5 mps 755 mmHg 72%
    18:00 +15°C° 0.3 mm 4 mps 755 mmHg 76%
    19:00 +14°C° 0.3 mm 4 mps 755 mmHg 79%
    20:00 +13°C° 0.1 mm 4 mps 755 mmHg 83%
    21:00 +12°C° 0.1 mm 4 mps 756 mmHg 86%
    22:00 +11°C° 0.1 mm 4 mps 756 mmHg 89%
    23:00 +11°C° 0 mm 3 mps 756 mmHg 91%

    Day after tomorrow, 24 June, Sunday

    Time Temperature Precipitation Wind Pressure Humidity
    00:00 +11°C° 0 mm 3 mps 756 mmHg 93%
    01:00 +10°C° 0 mm 3 mps 756 mmHg 95%
    02:00 +10°C° 0 mm 3 mps 756 mmHg 96%
    03:00 +10°C° 0 mm 3 mps 756 mmHg 97%
    04:00 +9°C° 0 mm 3 mps 756 mmHg 98%
    05:00 +10°C° 0 mm 3 mps 756 mmHg 96%
    06:00 +11°C° 0 mm 3 mps 756 mmHg 93%
    07:00 +12°C° 0 mm 4 mps 756 mmHg 91%
    08:00 +14°C° 0.1 mm 4 mps 756 mmHg 84%
    09:00 +15°C° 0.1 mm 4 mps 756 mmHg 77%
    10:00 +18°C° 0.1 mm 4 mps 757 mmHg 70%
    11:00 +18°C° 0.5 mm 4 mps 756 mmHg 68%
    12:00 +19°C° 0.5 mm 5 mps 756 mmHg 66%
    13:00 +20°C° 0.5 mm 5 mps 756 mmHg 63%
    14:00 +20°C° 0.7 mm 5 mps 756 mmHg 64%
    15:00 +20°C° 0.7 mm 5 mps 756 mmHg 65%
    16:00 +20°C° 0.7 mm 4 mps 756 mmHg 65%
    17:00 +19°C° 0.5 mm 4 mps 756 mmHg 70%
    18:00 +18°C° 0.5 mm 3 mps 756 mmHg 74%
    19:00 +17°C° 0.5 mm 3 mps 756 mmHg 78%
    20:00 +16°C° 0.1 mm 3 mps 757 mmHg 82%
    21:00 +15°C° 0.1 mm 2 mps 757 mmHg 87%
    22:00 +13°C° 0.1 mm 2 mps 757 mmHg 91%
    23:00 +13°C° 0 mm 2 mps 757 mmHg 92%

    25 June, Monday

    Time Temperature Precipitation Wind Pressure Humidity
    00:00 +12°C° 0 mm 2 mps 757 mmHg 94%
    01:00 +12°C° 0 mm 2 mps 757 mmHg 95%
    02:00 +12°C° 0 mm 2 mps 757 mmHg 95%
    03:00 +10°C° 0 mm 2 mps 758 mmHg 96%
    04:00 +10°C° 0 mm 2 mps 758 mmHg 96%
    05:00 +13°C° 0 mm 2 mps 758 mmHg 92%
    06:00 +14°C° 0 mm 2 mps 758 mmHg 88%
    07:00 +16°C° 0 mm 2 mps 758 mmHg 83%
    08:00 +18°C° 0 mm 2 mps 758 mmHg 75%
    09:00 +19°C° 0 mm 2 mps 758 mmHg 67%
    10:00 +21°C° 0 mm 3 mps 759 mmHg 58%
    11:00 +22°C° 0 mm 3 mps 759 mmHg 54%
    12:00 +24°C° 0 mm 3 mps 759 mmHg 50%
    13:00 +24°C° 0 mm 3 mps 759 mmHg 47%
    14:00 +24°C° 0 mm 3 mps 759 mmHg 47%
    15:00 +24°C° 0 mm 3 mps 759 mmHg 48%
    16:00 +24°C° 0 mm 3 mps 759 mmHg 49%
    17:00 +22°C° 0 mm 3 mps 759 mmHg 55%
    18:00 +21°C° 0 mm 3 mps 759 mmHg 61%
    19:00 +20°C° 0 mm 2 mps 759 mmHg 67%
    20:00 +19°C° 0 mm 2 mps 759 mmHg 72%
    21:00 +17°C° 0 mm 2 mps 760 mmHg 77%
    22:00 +16°C° 0 mm 1 mps 760 mmHg 82%
    23:00 +15°C° 0 mm 1 mps 760 mmHg 85%

    26 June, Tuesday

    Time Temperature Precipitation Wind Pressure Humidity
    00:00 +15°C° 0 mm 1 mps 760 mmHg 87%
    01:00 +14°C° 0 mm 1 mps 760 mmHg 89%
    02:00 +14°C° 0 mm 1 mps 760 mmHg 90%
    03:00 +14°C° 0 mm 1 mps 760 mmHg 91%
    04:00 +13°C° 0 mm 1 mps 760 mmHg 92%
    05:00 +15°C° 0 mm 1 mps 760 mmHg 86%
    06:00 +18°C° 0 mm 1 mps 760 mmHg 80%
    07:00 +19°C° 0 mm 1 mps 760 mmHg 74%
    08:00 +20°C° 0 mm 2 mps 760 mmHg 68%
    09:00 +21°C° 0 mm 2 mps 760 mmHg 62%
    10:00 +24°C° 0 mm 2 mps 761 mmHg 56%
    11:00 +25°C° 0 mm 2 mps 760 mmHg 52%
    12:00 +26°C° 0 mm 2 mps 760 mmHg 49%
    13:00 +27°C° 0 mm 2 mps 760 mmHg 45%
    14:00 +27°C° 0 mm 2 mps 760 mmHg 47%
    15:00 +27°C° 0 mm 3 mps 760 mmHg 48%
    16:00 +26°C° 0 mm 3 mps 760 mmHg 50%
    17:00 +26°C° 0 mm 3 mps 760 mmHg 53%
    18:00 +25°C° 0 mm 2 mps 760 mmHg 57%
    19:00 +24°C° 0 mm 2 mps 760 mmHg 61%
    20:00 +21°C° 0 mm 2 mps 760 mmHg 65%
    21:00 +20°C° 0 mm 2 mps 760 mmHg 70%
    22:00 +18°C° 0 mm 3 mps 761 mmHg 74%
    23:00 +17°C° 0 mm 2 mps 761 mmHg 78%

    27 June, Wednesday

    Time Temperature Precipitation Wind Pressure Humidity
    00:00 +17°C° 0 mm 2 mps 761 mmHg 82%
    01:00 +16°C° 0 mm 2 mps 761 mmHg 85%
    02:00 +15°C° 0 mm 2 mps 761 mmHg 85%
    03:00 +15°C° 0 mm 2 mps 761 mmHg 85%
    04:00 +14°C° 0 mm 2 mps 761 mmHg 85%
    05:00 +16°C° 0 mm 2 mps 761 mmHg 77%
    06:00 +18°C° 0 mm 2 mps 761 mmHg 69%
    07:00 +20°C° 0 mm 2 mps 762 mmHg 61%
    08:00 +23°C° 0 mm 2 mps 762 mmHg 54%
    09:00 +24°C° 0 mm 2 mps 762 mmHg 48%
    10:00 +26°C° 0 mm 3 mps 761 mmHg 42%
    11:00 +27°C° 0 mm 3 mps 761 mmHg 43%
    12:00 +27°C° 0 mm 3 mps 761 mmHg 44%
    13:00 +27°C° 0 mm 3 mps 761 mmHg 44%
    14:00 +28°C° 0 mm 3 mps 761 mmHg 44%
    15:00 +28°C° 0 mm 3 mps 760 mmHg 43%
    16:00 +28°C° 0 mm 4 mps 760 mmHg 42%
    17:00 +27°C° 0 mm 4 mps 760 mmHg 45%
    18:00 +26°C° 0 mm 4 mps 760 mmHg 47%
    19:00 +25°C° 0 mm 4 mps 761 mmHg 50%
    20:00 +22°C° 0 mm 3 mps 761 mmHg 54%
    21:00 +20°C° 0 mm 3 mps 761 mmHg 58%
    22:00 +18°C° 0 mm 3 mps 762 mmHg 63%
    23:00 +17°C° 0 mm 3 mps 762 mmHg 67%
    Show more